Theta_e
318 319 319 319 321 323 324 325 327 328 329 330 331 332 334 335 337 339 340 340 342 344 347 349 351 354 354 354 354 355 354 353
317 317 319 319 320 320 325 326 326 327 327 328 329 329 331 331 332 333 333 335 339 342 344 345 344 346 347 350 350 351 351 351
319 320 321 321 320 323 324 324 325 326 326 326 327 328 329 330 331 332 332 331 333 339 343 344 343 344 344 345 348 348 349 349
317 319 319 320 321 322 323 323 324 325 324 324 324 326 328 328 329 331 332 331 330 331 334 341 345 345 345 344 344 346 345 345
317 318 317 318 320 322 323 324 324 323 323 323 323 324 326 327 328 331 333 332 331 330 330 332 339 343 345 344 343 341 342 340
316 317 317 319 320 319 321 323 321 321 321 321 322 323 324 326 328 330 332 333 334 330 329 329 332 337 342 342 342 339 340 340
315 317 319 320 319 319 318 319 318 320 321 320 320 320 322 325 327 328 330 331 331 330 328 327 331 333 338 341 339 339 335 336
314 318 320 320 319 318 318 317 317 318 319 319 318 318 319 322 323 325 327 329 330 328 327 326 329 331 336 340 339 337 338 338
315 319 320 320 318 317 317 316 316 316 316 315 315 315 317 319 321 324 325 327 330 327 326 325 325 329 334 337 336 335 332 332
309 311 311 312 314 316 316 315 315 314 314 315 315 315 316 318 319 320 323 325 328 326 327 325 325 323 328 332 328 325 328 331
306 308 309 310 310 311 312 312 312 313 312 314 313 313 313 314 315 317 319 323 326 324 325 325 324 322 321 323 323 323 323 325
305 306 307 308 309 309 309 309 309 313 312 312 310 309 308 311 312 316 316 320 322 323 322 324 324 322 320 321 324 323 322 320
304 305 306 308 309 308 308 307 307 309 309 311 311 309 309 311 312 313 315 317 319 321 319 320 320 321 320 320 321 320 320 320
304 304 305 304 305 306 308 307 307 308 308 310 311 310 309 309 310 311 313 315 316 317 317 316 318 318 317 317 318 323 323 324
302 302 302 302 303 305 306 306 306 307 307 307 308 308 308 308 309 311 312 312 313 313 314 313 313 316 316 316 317 316 316 316
300 301 301 302 304 305 305 305 304 306 305 305 305 305 305 307 308 310 311 312 312 312 312 312 312 312 313 314 315 314 315 314
300 302 302 303 304 304 304 304 304 304 304 303 303 304 304 304 306 307 308 312 311 312 309 309 311 312 311 311 311 309 311 309
300 301 302 303 303 304 303 303 302 303 303 302 303 303 304 304 305 305 306 310 309 307 307 309 310 310 309 309 308 308 307 306
299 300 301 301 302 301 301 301 302 302 303 303 303 303 303 304 304 305 307 309 308 306 307 308 309 308 307 307 306 305 304 304
298 299 300 300 300 300 301 301 301 303 303 304 303 303 304 305 306 307 309 307 307 306 307 307 306 306 306 305 304 304 303 303
Wind_Speed
12 6 6 7 4 5 7 6 6 7 6 4 3 3 3 3 5 5 5 5 5 5 5 6 6 11 8 10 9 8 9 7
8 9 7 6 5 6 11 10 8 8 4 4 3 4 4 4 5 5 4 4 4 5 5 6 6 5 8 7 6 7 9 9
8 7 6 7 10 7 7 7 7 6 6 4 5 5 5 6 4 4 3 5 6 6 6 6 6 6 7 8 8 8 9 10
6 7 5 5 5 4 1 3 3 3 4 5 4 4 5 5 5 5 6 4 5 7 8 7 7 7 7 8 8 7 6 5
5 4 5 5 4 3 4 4 2 6 5 5 4 4 5 4 5 6 8 7 8 8 8 8 9 7 9 7 7 5 6 6
8 7 7 5 5 7 5 5 7 8 7 4 3 3 3 4 5 6 8 10 9 10 8 9 10 9 7 7 7 7 8 6
6 6 5 5 4 3 7 8 9 8 7 6 6 6 3 3 3 4 8 10 13 11 8 10 12 11 8 7 7 8 6 5
4 6 5 4 3 6 6 5 7 7 5 5 4 4 5 6 7 7 10 8 13 10 9 10 12 11 11 8 10 8 3 3
5 4 4 6 6 6 6 7 7 4 3 3 3 4 4 5 6 9 10 10 11 13 9 11 10 13 13 12 7 8 5 4
6 6 6 5 4 6 7 6 6 4 3 3 3 3 3 3 5 8 9 11 11 10 9 9 11 11 14 8 6 3 1 5
4 5 5 5 6 6 6 6 6 4 5 3 3 3 3 4 7 7 9 10 10 10 11 10 8 9 10 8 5 6 5 2
3 4 4 5 5 6 6 6 6 6 6 3 2 2 2 3 4 5 8 8 9 10 11 9 9 6 8 8 7 5 2 4
2 4 5 4 5 6 5 5 7 6 7 5 3 3 3 4 5 7 8 8 8 8 9 11 9 6 7 10 8 6 4 2
4 4 4 4 5 5 5 6 5 5 5 6 5 6 7 6 5 6 6 7 7 7 8 8 7 7 6 6 10 7 3 3
5 6 6 6 7 7 6 5 6 6 5 6 6 7 7 8 8 7 11 8 8 8 7 8 6 6 7 5 5 5 7 6
5 5 4 6 6 6 6 6 6 6 6 7 6 7 5 7 9 8 7 9 8 8 7 7 7 6 7 6 2 3 4 4
6 8 7 7 6 7 7 8 8 8 7 6 7 8 10 11 12 9 8 10 8 8 8 8 7 5 5 5 3 3 2 3
7 6 7 6 7 7 8 8 10 9 9 6 7 10 12 12 10 10 9 10 7 7 8 7 6 5 5 5 3 3 2 2
4 5 6 7 8 9 10 10 9 10 11 9 10 11 12 11 9 9 9 5 5 7 7 7 6 6 6 5 4 6 5 5
5 6 7 7 9 10 13 12 10 13 12 11 11 11 11 11 10 10 5 5 4 5 6 5 6 7 6 6 6 6 6 6
Wind_Direction
135 129 80 79 70 60 46 61 62 51 33 16 20 16 10 352 345 330 305 298 285 274 271 269 258 254 254 254 257 250 246 244
122 105 93 97 85 61 37 25 39 36 32 36 19 17 355 353 341 330 326 317 297 280 264 265 245 246 246 239 241 239 236 235
74 93 93 79 75 62 33 13 28 22 32 12 9 3 358 336 336 324 320 313 306 298 279 266 258 249 236 237 235 237 233 231
75 83 110 90 87 83 80 69 58 43 38 28 1 342 330 337 319 318 319 303 296 300 298 281 258 246 240 236 235 231 240 227
139 114 79 88 86 114 63 57 47 53 31 14 2 343 339 326 312 320 325 324 309 306 300 293 278 255 240 236 235 222 225 218
41 51 67 69 77 56 29 14 17 16 11 3 1 324 308 296 320 330 335 334 328 319 311 299 286 274 243 227 221 223 225 203
66 89 117 99 90 90 39 20 14 5 358 344 350 335 296 324 333 335 334 336 335 327 310 304 300 283 256 228 215 214 208 209
85 110 112 134 88 40 41 23 12 351 349 338 333 326 345 344 348 344 335 334 337 328 321 312 317 293 268 234 216 206 171 175
76 87 67 39 34 28 22 11 353 355 330 333 322 328 328 346 344 329 335 337 339 339 336 331 327 318 279 252 238 205 185 167
58 52 43 44 24 11 8 354 344 328 321 292 280 295 299 303 316 322 333 334 330 337 334 331 334 331 311 255 214 203 100 164
66 56 38 21 19 356 349 346 332 325 329 322 327 313 315 340 341 331 329 321 321 333 332 333 337 338 329 300 292 259 147 207
56 29 10 344 328 331 340 336 329 311 333 333 333 317 297 268 283 281 295 300 318 327 328 336 335 342 326 326 326 295 290 171
68 4 346 338 338 320 310 320 318 333 328 297 294 300 255 277 293 301 305 309 310 317 329 327 341 345 346 326 321 315 318 308
11 347 341 313 310 329 340 348 338 343 348 340 311 292 294 297 292 298 294 302 301 305 316 322 322 339 343 340 326 318 329 303
342 336 340 345 341 331 328 348 324 318 324 325 316 302 297 288 292 288 296 294 293 295 310 315 324 331 329 340 329 349 346 334
298 295 323 339 320 323 338 317 306 309 308 301 299 295 293 288 279 278 279 279 280 296 301 306 318 338 341 336 320 346 349 349
324 350 342 325 323 325 308 297 299 301 298 299 301 297 300 295 286 283 284 289 286 293 308 306 315 334 339 339 347 2 21 13
341 333 325 315 317 301 302 297 287 287 287 281 293 298 294 292 292 290 286 281 281 296 302 312 320 349 2 349 12 2 53 48
298 309 309 308 301 303 301 300 297 304 307 289 296 295 296 293 289 284 281 293 292 300 311 320 344 8 15 5 10 26 35 50
273 298 314 310 312 315 312 309 307 313 307 291 291 296 300 299 294 296 308 304 307 318 326 1 12 17 18 24 21 23 24 37